[[{"header":{"parameterUnit":"m.s-1","parameterCategory":2,"la1":30.2992,"la2":30.254,"lo1":-89.0895,"lo2":-89.0443,"dy":0.0025,"dx":0.0025,"nx":19,"ny":19,"refTime":"2026-03-27T09:00:00:Z","depth":"0","parameterNumber":2,"parameterNumberName":"U-component_of_CURRENTS"},"data":[0,0,0,0.401,0.4013,0.4142,0.4142,0.4256,0.4257,0,0,0,0,0,0,0,0,0,0,0,0.3961,0.3962,0.401,0.4013,0.4142,0.4143,0.4256,0.4257,0,0,0,0,0,0,0,0,0,0,0,0.396,0.3961,0.3962,0.4013,0.4142,0.4143,0.4256,0.4171,0,0,0,0,0,0,0,0,0,0,0.4052,0.4003,0.3961,0.3963,0.4014,0.4142,0.4143,0.4168,0.4177,0.4183,0,0.4205,0,0.4235,0.4264,0.4264,0,0,0,0.4013,0.3996,0.4043,0.3963,0.4015,0.4142,0.4084,0.4173,0.4183,0.4194,0.4207,0.4212,0.4237,0.4264,0.4265,0.4434,0.4435,0,0,0.4006,0.3973,0.4036,0.4049,0.4051,0.408,0.4088,0.418,0.4182,0.4207,0.4215,0.4239,0.4265,0.4266,0.4433,0.4435,0,0,0,0.3985,0.3968,0.4013,0.4044,0.4073,0.4083,0.4093,0.4178,0.4197,0.4216,0.424,0.4265,0.4267,0.4432,0.4434,0.4584,0,0,0,0.3981,0.3956,0.401,0.399,0.4071,0.4131,0.4088,0.419,0.4202,0.424,0.4265,0.4268,0.4431,0.4433,0.4577,0.4596,0,0,0,0.3955,0.3953,0.3971,0.3988,0.4046,0.4131,0.4155,0.4194,0.4216,0.4264,0.4268,0.443,0.4433,0.4571,0.4587,0.4769,0,0,0,0.3912,0.3955,0.397,0.4038,0.4045,0.4159,0.4155,0.4238,0.4284,0.4266,0.4431,0.4434,0.4569,0.4582,0.4762,0.479,0.4827,0,0,0.3948,0.3958,0.4006,0.4024,0.4129,0.4141,0.4283,0.4338,0.4328,0.4394,0.4398,0.4579,0.4587,0.4768,0.4946,0.4978,0,0,0,0.4007,0.4029,0.4068,0.4133,0.4211,0.4314,0.4369,0.4418,0.4524,0.4368,0.4592,0.4591,0.4702,0.4703,0.473,0.4567,0.4446,0.4446,0.4446,0.3968,0.4046,0.4124,0.4228,0.4307,0.4443,0.4552,0.4628,0.4609,0.4693,0.4726,0.497,0.4973,0.4993,0.4826,0.4763,0.4764,0.4764,0.4765,0.4009,0.4069,0.4163,0.426,0.4389,0.4503,0.4721,0.4781,0.4986,0.4883,0.4988,0.4872,0.5031,0.4842,0.4774,0.4773,0.4771,0.4771,0.477,0.3976,0.4026,0.4081,0.4235,0.4384,0.4557,0.4794,0.4951,0.5081,0.5204,0.5252,0.5249,0.5075,0.5293,0.5294,0.5295,0.5296,0.5296,0.5297,0.3925,0.3997,0.4088,0.4229,0.4341,0.4539,0.4858,0.5056,0.5327,0.5395,0.5397,0.5137,0.5132,0.5103,0.5311,0.5309,0.5307,0.5306,0.5305,0.3972,0.3973,0.4107,0.4209,0.4449,0.4584,0.4893,0.5271,0.551,0.5644,0.5438,0.5532,0.5492,0.5469,0.5447,0.5734,0.5734,0.5734,0.5734,0.3992,0.4006,0.4167,0.4317,0.4497,0.4635,0.4877,0.5182,0.5457,0.5498,0.5523,0.5367,0.5357,0.5297,0.5277,0.5246,0.5475,0.5474,0.5474,0.4076,0.4097,0.421,0.4313,0.4508,0.4639,0.4734,0.4822,0.5182,0.5442,0.5301,0.5312,0.5053,0.5049,0.492,0.4906,0.4841,0,0]},{"header":{"parameterUnit":"m.s-1","parameterCategory":2,"la1":30.2992,"la2":30.254,"lo1":-89.0895,"lo2":-89.0443,"dy":0.0025,"dx":0.0025,"nx":19,"ny":19,"refTime":"2026-03-27T09:00:00:Z","depth":"0","parameterNumber":3,"parameterNumberName":"V-component_of_CURRENTS"},"data":[0,0,0,0.0296,0.0296,0.0264,0.0264,0.0183,0.0182,0,0,0,0,0,0,0,0,0,0,0,0.0307,0.0307,0.0296,0.0296,0.0264,0.0264,0.0183,0.0182,0,0,0,0,0,0,0,0,0,0,0,0.0307,0.0307,0.0307,0.0296,0.0264,0.0264,0.0183,0.0215,0,0,0,0,0,0,0,0,0,0,0.025,0.0271,0.0307,0.0307,0.0296,0.0264,0.0264,0.0217,0.0213,0.0188,0,0.0189,0,0.0186,0.0176,0.0176,0,0,0,0.0288,0.0275,0.0265,0.0307,0.0295,0.0264,0.0276,0.0215,0.021,0.0182,0.0188,0.0185,0.0184,0.0176,0.0175,0.0208,0.0209,0,0,0.029,0.0299,0.0268,0.0263,0.0294,0.0277,0.0275,0.0213,0.021,0.0188,0.0183,0.0183,0.0175,0.0174,0.0207,0.0208,0,0,0,0.03,0.03,0.0293,0.0266,0.0264,0.0277,0.0274,0.0213,0.0211,0.0182,0.0182,0.0175,0.0174,0.0206,0.0207,0.0405,0,0,0,0.0301,0.0307,0.0294,0.0298,0.0266,0.0245,0.0276,0.0215,0.0208,0.0182,0.0175,0.0173,0.0205,0.0207,0.0397,0.0546,0,0,0,0.0307,0.0307,0.0306,0.0299,0.0289,0.0246,0.024,0.0214,0.0208,0.0176,0.0172,0.0204,0.0206,0.0391,0.0532,0.0704,0,0,0,0.0314,0.0358,0.0306,0.0361,0.0289,0.0336,0.024,0.0249,0.0234,0.0174,0.0205,0.0207,0.0388,0.0523,0.0694,0.0882,0.0943,0,0,0.0384,0.0366,0.0404,0.0358,0.043,0.0339,0.0425,0.0347,0.0259,0.0218,0.0219,0.04,0.0531,0.0702,0.1017,0.1076,0,0,0,0.0437,0.0465,0.0479,0.0502,0.05,0.0539,0.0453,0.0436,0.0414,0.0261,0.0392,0.047,0.0571,0.0662,0.0708,0.0407,0.0218,0.0218,0.0218,0.0538,0.0548,0.0631,0.0648,0.0676,0.0667,0.0712,0.0668,0.0533,0.0562,0.0623,0.0884,0.098,0.1018,0.0703,0.0578,0.0579,0.058,0.058,0.0683,0.075,0.0763,0.085,0.0872,0.0936,0.0961,0.0909,0.0994,0.0815,0.0901,0.0856,0.1081,0.0726,0.0593,0.0591,0.0589,0.0588,0.0587,0.0765,0.0809,0.0849,0.0982,0.1105,0.1137,0.1345,0.1297,0.1223,0.1309,0.1389,0.1386,0.1087,0.1337,0.1339,0.134,0.1341,0.1342,0.1343,0.0845,0.0891,0.102,0.1145,0.1263,0.1442,0.1588,0.17,0.177,0.1681,0.1681,0.1159,0.1116,0.11,0.1365,0.1361,0.1359,0.1357,0.1355,0.0989,0.0994,0.1186,0.1312,0.1599,0.1877,0.199,0.2278,0.2337,0.2424,0.1737,0.1871,0.1845,0.1806,0.1806,0.2239,0.2239,0.2239,0.2239,0.108,0.1101,0.1355,0.158,0.1863,0.2087,0.2597,0.2807,0.2494,0.2218,0.1924,0.1707,0.1684,0.1629,0.1594,0.158,0.1946,0.1944,0.1943,0.1203,0.1253,0.1453,0.1651,0.1977,0.2344,0.2877,0.3216,0.2553,0.1885,0.1471,0.1484,0.1099,0.1088,0.0935,0.091,0.0862,0,0]}],[{"header":{"parameterUnit":"m.s-1","parameterCategory":2,"la1":30.2992,"la2":30.254,"lo1":-89.0895,"lo2":-89.0443,"dy":0.0025,"dx":0.0025,"nx":19,"ny":19,"refTime":"2026-03-27T09:00:00:Z","depth":"2","parameterNumber":2,"parameterNumberName":"U-component_of_CURRENTS"},"data":[0,0,0,0.3073,0.3077,0.3207,0.3207,0.333,0.3331,0,0,0,0,0,0,0,0,0,0,0,0.3034,0.3036,0.3072,0.3077,0.3207,0.3207,0.333,0.3331,0,0,0,0,0,0,0,0,0,0,0,0.3033,0.3035,0.3038,0.3078,0.3207,0.3207,0.3329,0.3234,0,0,0,0,0,0,0,0,0,0,0.311,0.3075,0.3035,0.3038,0.3079,0.3207,0.3207,0.323,0.324,0.3269,0,0.3325,0,0.3345,0.3341,0.3342,0,0,0,0.3045,0.3067,0.3126,0.3038,0.308,0.3207,0.3139,0.3236,0.3247,0.3283,0.3327,0.3331,0.3347,0.3342,0.3343,0.3524,0.3525,0,0,0.3037,0.3026,0.3118,0.3135,0.3161,0.3135,0.3143,0.3243,0.326,0.3327,0.3334,0.3349,0.3343,0.3345,0.3523,0.3524,0,0,0,0.3039,0.3021,0.3076,0.3129,0.3165,0.314,0.3149,0.3255,0.3283,0.3336,0.335,0.3344,0.3346,0.3522,0.3523,0.362,0,0,0,0.3033,0.3024,0.3074,0.3063,0.3164,0.3214,0.3159,0.3275,0.3287,0.3349,0.3344,0.3348,0.3521,0.3523,0.3616,0.3676,0,0,0,0.3019,0.3021,0.3056,0.3063,0.3136,0.3213,0.3244,0.3278,0.3297,0.3342,0.3348,0.3521,0.3523,0.3612,0.3668,0.3792,0,0,0,0.2972,0.3019,0.3057,0.3112,0.3136,0.3233,0.3243,0.3313,0.3355,0.3345,0.3521,0.3523,0.361,0.3664,0.3787,0.3678,0.3696,0,0,0.2992,0.3021,0.305,0.3087,0.3187,0.321,0.3314,0.3377,0.3393,0.3478,0.3482,0.3617,0.3668,0.3791,0.3792,0.3807,0,0,0,0.3028,0.3064,0.3098,0.3173,0.3247,0.3336,0.3394,0.3444,0.3546,0.3437,0.363,0.366,0.3735,0.3656,0.3669,0.3533,0.3533,0.3532,0.3532,0.3022,0.3076,0.3133,0.322,0.3306,0.3437,0.3529,0.3614,0.3609,0.3677,0.3748,0.3921,0.3836,0.3845,0.3748,0.3748,0.3749,0.3749,0.3749,0.3044,0.3068,0.3167,0.3243,0.3368,0.348,0.367,0.3725,0.3926,0.3851,0.3919,0.3772,0.3864,0.3757,0.3756,0.3754,0.3754,0.3753,0.3753,0.302,0.3034,0.3097,0.323,0.3382,0.3533,0.3738,0.391,0.4011,0.4124,0.4061,0.4056,0.4003,0.4169,0.417,0.4171,0.4171,0.4172,0.4172,0.2954,0.3017,0.3068,0.3229,0.3313,0.3527,0.3812,0.3952,0.4131,0.4183,0.4182,0.4064,0.405,0.4029,0.4185,0.4183,0.4181,0.418,0.4179,0.293,0.2961,0.3022,0.3092,0.3287,0.3364,0.3699,0.3943,0.4149,0.4219,0.4221,0.4215,0.4187,0.4173,0.4154,0.4336,0.4336,0.4336,0.4336,0.2895,0.2919,0.2941,0.2997,0.3114,0.3275,0.3334,0.3573,0.3901,0.3994,0.4008,0.3835,0.3838,0.3779,0.3774,0.3742,0.3817,0.3816,0.3814,0.2889,0.2885,0.2858,0.2892,0.2979,0.3068,0.2998,0.3063,0.3404,0.3786,0.3837,0.4316,0.4093,0.4085,0.4013,0.3998,0.3955,0,0]},{"header":{"parameterUnit":"m.s-1","parameterCategory":2,"la1":30.2992,"la2":30.254,"lo1":-89.0895,"lo2":-89.0443,"dy":0.0025,"dx":0.0025,"nx":19,"ny":19,"refTime":"2026-03-27T09:00:00:Z","depth":"2","parameterNumber":3,"parameterNumberName":"V-component_of_CURRENTS"},"data":[0,0,0,0.0145,0.0145,0.0108,0.0108,0.0027,0.0026,0,0,0,0,0,0,0,0,0,0,0,0.0155,0.0155,0.0145,0.0145,0.0108,0.0108,0.0027,0.0026,0,0,0,0,0,0,0,0,0,0,0,0.0155,0.0155,0.0155,0.0144,0.0108,0.0108,0.0027,0.006,0,0,0,0,0,0,0,0,0,0,0.0098,0.0118,0.0155,0.0155,0.0144,0.0108,0.0108,0.0062,0.0058,0.0038,0,0.004,0,0.0038,0.0021,0.0021,0,0,0,0.0131,0.0121,0.0114,0.0155,0.0144,0.0109,0.0121,0.006,0.0055,0.0032,0.0039,0.0036,0.0036,0.0021,0.002,0.0028,0.0029,0,0,0.0133,0.0142,0.0117,0.0111,0.0144,0.0122,0.012,0.0057,0.0055,0.0039,0.0034,0.0035,0.002,0.002,0.0028,0.0028,0,0,0,0.0148,0.0143,0.0138,0.0114,0.0114,0.0121,0.0119,0.0057,0.0056,0.0034,0.0034,0.002,0.0019,0.0027,0.0028,0.0162,0,0,0,0.0148,0.0153,0.0139,0.0143,0.0116,0.0091,0.012,0.006,0.0054,0.0034,0.002,0.0018,0.0026,0.0027,0.0157,0.0269,0,0,0,0.0155,0.0154,0.0153,0.0144,0.0135,0.0092,0.0087,0.0059,0.0054,0.0021,0.0018,0.0026,0.0027,0.0153,0.0259,0.0329,0,0,0,0.0159,0.0193,0.0154,0.0196,0.0135,0.0166,0.0087,0.0089,0.007,0.0019,0.0026,0.0028,0.0151,0.0253,0.0323,0.0395,0.0429,0,0,0.0213,0.02,0.0229,0.0194,0.0257,0.017,0.0225,0.0155,0.0083,0.004,0.004,0.0159,0.0259,0.0328,0.0483,0.0515,0,0,0,0.0255,0.028,0.0291,0.0314,0.0308,0.0317,0.0243,0.0214,0.0176,0.0081,0.0152,0.0212,0.0251,0.028,0.0306,0.0035,0.0035,0.0035,0.0035,0.034,0.035,0.0419,0.043,0.0442,0.0415,0.042,0.0363,0.0265,0.027,0.0314,0.0458,0.049,0.051,0.0276,0.0277,0.0277,0.0277,0.0278,0.0459,0.0509,0.0524,0.0591,0.059,0.0621,0.0593,0.0538,0.0549,0.0438,0.0466,0.0413,0.0546,0.0288,0.0286,0.0285,0.0284,0.0283,0.0282,0.0525,0.0556,0.0593,0.0697,0.0779,0.0774,0.0894,0.0828,0.071,0.0747,0.0734,0.0732,0.0562,0.0739,0.074,0.0741,0.0741,0.0742,0.0743,0.0577,0.0622,0.0723,0.0824,0.0914,0.1046,0.1085,0.1108,0.1047,0.0932,0.0931,0.0614,0.0599,0.0588,0.0755,0.0753,0.0751,0.075,0.0749,0.0672,0.0688,0.0849,0.0951,0.1196,0.1426,0.1423,0.1469,0.1409,0.1399,0.1014,0.1003,0.0974,0.0951,0.0949,0.1199,0.1199,0.12,0.12,0.0731,0.0752,0.0985,0.1192,0.144,0.1618,0.1851,0.177,0.1529,0.1315,0.1309,0.1206,0.1186,0.1159,0.1131,0.1128,0.1426,0.1426,0.1427,0.0814,0.0873,0.106,0.1268,0.1563,0.1847,0.2078,0.1984,0.1565,0.1431,0.1298,0.1224,0.1051,0.1028,0.0959,0.0927,0.0909,0,0]}],[{"header":{"parameterUnit":"m.s-1","parameterCategory":2,"la1":30.2992,"la2":30.254,"lo1":-89.0895,"lo2":-89.0443,"dy":0.0025,"dx":0.0025,"nx":19,"ny":19,"refTime":"2026-03-27T09:00:00:Z","depth":"4","parameterNumber":2,"parameterNumberName":"U-component_of_CURRENTS"},"data":[0,0,0,0.1968,0.1972,0.2188,0.2189,0.2384,0.2385,0,0,0,0,0,0,0,0,0,0,0,0.1894,0.1896,0.1967,0.1972,0.2188,0.2189,0.2384,0.2385,0,0,0,0,0,0,0,0,0,0,0,0.1893,0.1895,0.1897,0.1973,0.2187,0.2189,0.2383,0.2242,0,0,0,0,0,0,0,0,0,0,0.2044,0.1997,0.1895,0.1897,0.1974,0.2187,0.2189,0.2236,0.2251,0.2261,0,0.23,0,0.2343,0.2396,0.2397,0,0,0,0.1979,0.1985,0.203,0.1897,0.1976,0.2187,0.2092,0.2245,0.2262,0.228,0.2303,0.2311,0.2346,0.2397,0.2398,0.256,0.2561,0,0,0.1967,0.1946,0.2019,0.2041,0.2038,0.2085,0.2099,0.2256,0.2281,0.2304,0.2316,0.235,0.2398,0.2399,0.256,0.2561,0,0,0,0.1928,0.1938,0.1981,0.2032,0.2076,0.2091,0.2107,0.2275,0.2286,0.2318,0.2352,0.2399,0.2401,0.2559,0.256,0.2632,0,0,0,0.1922,0.1915,0.1976,0.1967,0.2073,0.2192,0.2122,0.2275,0.2295,0.2351,0.2399,0.2402,0.2559,0.256,0.2629,0.2649,0,0,0,0.1883,0.1911,0.1934,0.1965,0.2054,0.2191,0.2213,0.2281,0.2314,0.2397,0.2403,0.2558,0.256,0.2626,0.2644,0.2733,0,0,0,0.1855,0.1887,0.1935,0.1989,0.2052,0.2163,0.2213,0.232,0.2392,0.24,0.2559,0.256,0.2625,0.2641,0.2729,0.2387,0,0,0,0.1867,0.1888,0.1918,0.1965,0.2051,0.2133,0.2258,0.2378,0.2414,0.2501,0.2506,0.263,0.2644,0.2732,0.2473,0,0,0,0,0.1902,0.1918,0.1953,0.2027,0.2117,0.2238,0.2353,0.2419,0.2553,0.2464,0.2638,0.2645,0.2699,0.2487,0.2567,0.2567,0.2567,0.2566,0.2566,0.187,0.1924,0.1983,0.2068,0.2155,0.2325,0.2437,0.255,0.2581,0.2658,0.271,0.2832,0.2611,0.2723,0.2723,0.2724,0.2724,0.2724,0.2725,0.1867,0.1891,0.2,0.2078,0.2219,0.2345,0.2547,0.2627,0.2811,0.2785,0.2836,0.2584,0.2732,0.273,0.2729,0.2728,0.2728,0.2727,0.2727,0.182,0.1837,0.1922,0.2051,0.2212,0.2388,0.2561,0.2744,0.2864,0.2945,0.2753,0.2895,0.2884,0.2997,0.2997,0.2998,0.2998,0.2998,0.2999,0.1727,0.1806,0.1852,0.2018,0.2107,0.2301,0.2606,0.2723,0.2896,0.2796,0.2987,0.2924,0.2916,0.29,0.3006,0.3005,0.3004,0.3003,0.3003,0.1604,0.167,0.1719,0.1795,0.1976,0.2104,0.2443,0.262,0.2729,0.2719,0.2721,0.2733,0.2682,0.2679,0.2653,0.2691,0.2687,0.2683,0,0.1506,0.1542,0.1568,0.1607,0.1697,0.1947,0.2045,0.2252,0.2435,0.2341,0.2686,0.2678,0.2687,0.2617,0.261,0.257,0,0,0,0.1403,0.1444,0.1395,0.1456,0.1527,0.1749,0.2055,0.2064,0.2404,0.2441,0.2583,0.2609,0.2834,0.3029,0.298,0.2969,0.2942,0,0]},{"header":{"parameterUnit":"m.s-1","parameterCategory":2,"la1":30.2992,"la2":30.254,"lo1":-89.0895,"lo2":-89.0443,"dy":0.0025,"dx":0.0025,"nx":19,"ny":19,"refTime":"2026-03-27T09:00:00:Z","depth":"4","parameterNumber":3,"parameterNumberName":"V-component_of_CURRENTS"},"data":[0,0,0,0.0123,0.0123,0.0098,0.0098,0.0033,0.0032,0,0,0,0,0,0,0,0,0,0,0,0.013,0.013,0.0123,0.0123,0.0098,0.0098,0.0033,0.0032,0,0,0,0,0,0,0,0,0,0,0,0.013,0.013,0.013,0.0123,0.0099,0.0098,0.0033,0.0057,0,0,0,0,0,0,0,0,0,0,0.0084,0.01,0.013,0.013,0.0123,0.0099,0.0098,0.0059,0.0056,0.0037,0,0.004,0,0.0039,0.0028,0.0028,0,0,0,0.0112,0.0102,0.0097,0.013,0.0123,0.0099,0.0107,0.0057,0.0054,0.0033,0.0039,0.0037,0.0038,0.0027,0.0027,0.0018,0.0018,0,0,0.0114,0.012,0.01,0.0096,0.0124,0.0107,0.0106,0.0055,0.0053,0.0039,0.0035,0.0037,0.0027,0.0026,0.0018,0.0018,0,0,0,0.0125,0.0121,0.0118,0.0098,0.0099,0.0107,0.0105,0.0055,0.0055,0.0035,0.0036,0.0027,0.0026,0.0017,0.0018,0.0116,0,0,0,0.0125,0.0129,0.0119,0.0122,0.01,0.0082,0.0106,0.0058,0.0053,0.0036,0.0027,0.0025,0.0017,0.0017,0.0113,0.0172,0,0,0,0.0129,0.0129,0.0129,0.0122,0.0117,0.0083,0.0079,0.0057,0.0054,0.0027,0.0025,0.0016,0.0017,0.0109,0.0165,0.0181,0,0,0,0.0132,0.0156,0.0129,0.016,0.0117,0.0139,0.008,0.0081,0.0066,0.0026,0.0017,0.0018,0.0108,0.0162,0.0178,0.023,0,0,0,0.017,0.0161,0.0182,0.0159,0.0205,0.0141,0.0177,0.0125,0.007,0.0028,0.0028,0.0114,0.0165,0.0181,0.0281,0,0,0,0,0.02,0.0217,0.0226,0.0245,0.0242,0.0244,0.019,0.0162,0.0127,0.0066,0.0104,0.0133,0.014,0.016,0.0022,0.0022,0.0022,0.0022,0.0022,0.0255,0.0266,0.0316,0.0328,0.0337,0.0312,0.0302,0.025,0.0188,0.0186,0.0206,0.0278,0.0303,0.0186,0.0187,0.0187,0.0188,0.0188,0.0188,0.0335,0.037,0.0388,0.044,0.0438,0.0457,0.0412,0.037,0.0342,0.0284,0.0284,0.0254,0.0198,0.0196,0.0195,0.0193,0.0193,0.0192,0.0192,0.0374,0.0396,0.0431,0.0512,0.0571,0.0563,0.062,0.0555,0.0445,0.0452,0.0434,0.0337,0.0336,0.0441,0.0442,0.0442,0.0442,0.0443,0.0443,0.0397,0.0438,0.0518,0.0597,0.0669,0.0748,0.0751,0.0725,0.0613,0.0562,0.048,0.0363,0.0354,0.0349,0.0448,0.0447,0.0446,0.0446,0.0446,0.0445,0.0468,0.0595,0.0679,0.0857,0.092,0.0926,0.0852,0.0817,0.0731,0.0596,0.0587,0.0551,0.0538,0.0537,0.0696,0.0697,0.0698,0,0.0476,0.0495,0.0682,0.0842,0.0993,0.1038,0.1049,0.0995,0.0826,0.0823,0.0778,0.063,0.0621,0.0582,0.0572,0.0574,0,0,0,0.052,0.0577,0.0718,0.0884,0.1066,0.108,0.1062,0.1027,0.0859,0.0821,0.0725,0.0718,0.0596,0.0464,0.0387,0.0377,0.0364,0,0]}]]